Hourly Weather Gojcow

Today, 12 May, Wednesday

Time Temperature Precipitation Wind Pressure Humidity
00:00 +13°C° 0 mm 5 mps 733 mmHg 72%
01:00 +13°C° 0 mm 5 mps 733 mmHg 72%
02:00 +12°C° 0 mm 5 mps 733 mmHg 73%
03:00 +12°C° 0 mm 5 mps 733 mmHg 74%
04:00 +11°C° 0 mm 4 mps 732 mmHg 76%
05:00 +12°C° 0 mm 5 mps 732 mmHg 73%
06:00 +14°C° 0 mm 5 mps 732 mmHg 71%
07:00 +15°C° 0 mm 6 mps 732 mmHg 68%
08:00 +17°C° 0 mm 6 mps 732 mmHg 64%
09:00 +20°C° 0 mm 6 mps 732 mmHg 60%
10:00 +21°C° 0 mm 7 mps 732 mmHg 56%
11:00 +22°C° 0 mm 7 mps 732 mmHg 54%
12:00 +23°C° 0 mm 7 mps 732 mmHg 52%
13:00 +23°C° 0 mm 8 mps 732 mmHg 50%
14:00 +23°C° 0 mm 8 mps 732 mmHg 54%
15:00 +22°C° 0 mm 8 mps 731 mmHg 58%
16:00 +22°C° 0 mm 8 mps 731 mmHg 62%
17:00 +18°C° 0 mm 7 mps 731 mmHg 67%
18:00 +16°C° 0 mm 7 mps 731 mmHg 72%
19:00 +14°C° 0 mm 7 mps 731 mmHg 77%
20:00 +12°C° 0 mm 7 mps 731 mmHg 74%
21:00 +11°C° 0 mm 6 mps 731 mmHg 72%
22:00 +10°C° 0 mm 6 mps 731 mmHg 69%
23:00 +9°C° 0 mm 5 mps 730 mmHg 73%

Tomorrow, 13 May, Thursday

Time Temperature Precipitation Wind Pressure Humidity
00:00 +8°C° 0 mm 5 mps 730 mmHg 76%
01:00 +8°C° 0 mm 5 mps 729 mmHg 79%
02:00 +7°C° 0 mm 5 mps 729 mmHg 82%
03:00 +6°C° 0 mm 4 mps 728 mmHg 85%
04:00 +6°C° 0 mm 4 mps 728 mmHg 88%
05:00 +7°C° 0 mm 4 mps 728 mmHg 84%
06:00 +8°C° 0 mm 5 mps 728 mmHg 79%
07:00 +9°C° 0 mm 5 mps 728 mmHg 75%
08:00 +11°C° 0 mm 4 mps 727 mmHg 75%
09:00 +12°C° 0 mm 4 mps 727 mmHg 74%
10:00 +13°C° 0 mm 4 mps 727 mmHg 73%
11:00 +13°C° 0.1 mm 3 mps 726 mmHg 76%
12:00 +13°C° 0.1 mm 3 mps 726 mmHg 78%
13:00 +13°C° 0.1 mm 3 mps 726 mmHg 81%
14:00 +14°C° 0.1 mm 2 mps 726 mmHg 82%
15:00 +14°C° 0.1 mm 2 mps 726 mmHg 82%
16:00 +15°C° 0.1 mm 1 mps 725 mmHg 83%
17:00 +14°C° 0.1 mm 1 mps 725 mmHg 86%
18:00 +14°C° 0.1 mm 1 mps 725 mmHg 89%
19:00 +13°C° 0.1 mm 1 mps 725 mmHg 91%
20:00 +13°C° 0.1 mm 2 mps 725 mmHg 92%
21:00 +13°C° 0.1 mm 2 mps 725 mmHg 93%
22:00 +12°C° 0.1 mm 2 mps 725 mmHg 94%
23:00 +11°C° 0 mm 3 mps 725 mmHg 95%

Day after tomorrow, 14 May, Friday

Time Temperature Precipitation Wind Pressure Humidity
00:00 +11°C° 0 mm 3 mps 725 mmHg 95%
01:00 +11°C° 0 mm 4 mps 725 mmHg 96%
02:00 +11°C° 0 mm 4 mps 726 mmHg 96%
03:00 +10°C° 0 mm 4 mps 726 mmHg 95%
04:00 +10°C° 0 mm 4 mps 726 mmHg 95%
05:00 +10°C° 0 mm 4 mps 726 mmHg 93%
06:00 +11°C° 0 mm 4 mps 727 mmHg 91%
07:00 +11°C° 0 mm 4 mps 727 mmHg 88%
08:00 +11°C° 0 mm 4 mps 728 mmHg 87%
09:00 +12°C° 0 mm 5 mps 728 mmHg 85%
10:00 +12°C° 0 mm 5 mps 729 mmHg 84%
11:00 +12°C° 0 mm 5 mps 729 mmHg 82%
12:00 +11°C° 0 mm 6 mps 730 mmHg 80%
13:00 +11°C° 0 mm 6 mps 730 mmHg 78%
14:00 +12°C° 0 mm 5 mps 730 mmHg 76%
15:00 +12°C° 0 mm 5 mps 731 mmHg 74%
16:00 +12°C° 0 mm 5 mps 731 mmHg 73%
17:00 +11°C° 0 mm 4 mps 731 mmHg 77%
18:00 +11°C° 0 mm 3 mps 731 mmHg 81%
19:00 +10°C° 0 mm 2 mps 731 mmHg 85%
20:00 +9°C° 0 mm 2 mps 731 mmHg 88%
21:00 +8°C° 0 mm 2 mps 732 mmHg 91%
22:00 +8°C° 0 mm 2 mps 732 mmHg 94%
23:00 +7°C° 0 mm 2 mps 732 mmHg 94%

15 May, Saturday

Time Temperature Precipitation Wind Pressure Humidity
00:00 +7°C° 0 mm 2 mps 732 mmHg 94%
01:00 +7°C° 0 mm 2 mps 732 mmHg 95%
02:00 +8°C° 0 mm 2 mps 732 mmHg 93%
03:00 +8°C° 0 mm 2 mps 732 mmHg 92%
04:00 +8°C° 0 mm 2 mps 732 mmHg 91%
05:00 +10°C° 0 mm 2 mps 732 mmHg 86%
06:00 +12°C° 0 mm 2 mps 733 mmHg 81%
07:00 +13°C° 0 mm 2 mps 733 mmHg 76%
08:00 +14°C° 0.1 mm 1 mps 733 mmHg 71%
09:00 +16°C° 0.1 mm 1 mps 733 mmHg 67%
10:00 +18°C° 0.1 mm 1 mps 733 mmHg 62%
11:00 +18°C° 0.4 mm 1 mps 733 mmHg 61%
12:00 +19°C° 0.4 mm 1 mps 733 mmHg 60%
13:00 +19°C° 0.4 mm 1 mps 733 mmHg 59%
14:00 +19°C° 0.5 mm 1 mps 732 mmHg 60%
15:00 +19°C° 0.5 mm 1 mps 732 mmHg 61%
16:00 +19°C° 0.5 mm 1 mps 732 mmHg 62%
17:00 +18°C° 0.3 mm 1 mps 732 mmHg 68%
18:00 +15°C° 0.3 mm 1 mps 732 mmHg 74%
19:00 +14°C° 0.3 mm 2 mps 732 mmHg 81%
20:00 +13°C° 0.1 mm 2 mps 732 mmHg 84%
21:00 +13°C° 0.1 mm 2 mps 732 mmHg 86%
22:00 +12°C° 0.1 mm 2 mps 732 mmHg 89%
23:00 +10°C° 0.3 mm 2 mps 732 mmHg 91%

16 May, Sunday

Time Temperature Precipitation Wind Pressure Humidity
00:00 +10°C° 0.3 mm 2 mps 732 mmHg 93%
01:00 +9°C° 0.3 mm 2 mps 732 mmHg 94%
02:00 +9°C° 0.2 mm 2 mps 732 mmHg 94%
03:00 +9°C° 0.2 mm 2 mps 732 mmHg 95%
04:00 +9°C° 0.2 mm 1 mps 732 mmHg 95%
05:00 +10°C° 0.2 mm 2 mps 732 mmHg 91%
06:00 +12°C° 0.2 mm 2 mps 732 mmHg 87%
07:00 +14°C° 0.2 mm 2 mps 732 mmHg 83%
08:00 +16°C° 0.1 mm 3 mps 732 mmHg 77%
09:00 +17°C° 0.1 mm 3 mps 732 mmHg 71%
10:00 +19°C° 0.1 mm 3 mps 732 mmHg 65%
11:00 +18°C° 0.8 mm 4 mps 732 mmHg 68%
12:00 +18°C° 0.8 mm 4 mps 731 mmHg 70%
13:00 +17°C° 0.8 mm 5 mps 731 mmHg 72%
14:00 +16°C° 1.1 mm 5 mps 731 mmHg 77%
15:00 +15°C° 1.1 mm 4 mps 731 mmHg 82%
16:00 +14°C° 1.1 mm 4 mps 731 mmHg 87%
17:00 +13°C° 0.6 mm 3 mps 731 mmHg 90%
18:00 +13°C° 0.6 mm 3 mps 731 mmHg 93%
19:00 +13°C° 0.6 mm 2 mps 731 mmHg 96%
20:00 +13°C° 0.1 mm 2 mps 731 mmHg 96%
21:00 +13°C° 0.1 mm 1 mps 731 mmHg 96%
22:00 +11°C° 0.1 mm 0 mps 731 mmHg 96%
23:00 +12°C° 0 mm 1 mps 731 mmHg 96%

17 May, Monday

Time Temperature Precipitation Wind Pressure Humidity
00:00 +12°C° 0 mm 1 mps 731 mmHg 96%
01:00 +12°C° 0 mm 2 mps 731 mmHg 96%
02:00 +12°C° 0 mm 2 mps 731 mmHg 96%
03:00 +12°C° 0 mm 2 mps 731 mmHg 96%
04:00 +10°C° 0 mm 2 mps 731 mmHg 96%
05:00 +11°C° 0 mm 3 mps 731 mmHg 91%
06:00 +12°C° 0 mm 4 mps 732 mmHg 87%
07:00 +13°C° 0 mm 4 mps 732 mmHg 82%
08:00 +14°C° 0 mm 4 mps 732 mmHg 74%
09:00 +15°C° 0 mm 4 mps 732 mmHg 66%
10:00 +17°C° 0 mm 4 mps 732 mmHg 57%
11:00 +18°C° 0 mm 4 mps 732 mmHg 54%
12:00 +18°C° 0 mm 4 mps 732 mmHg 51%
13:00 +19°C° 0 mm 4 mps 732 mmHg 47%
14:00 +19°C° 0 mm 4 mps 732 mmHg 50%
15:00 +18°C° 0 mm 3 mps 732 mmHg 53%
16:00 +18°C° 0 mm 3 mps 732 mmHg 55%
17:00 +17°C° 0 mm 2 mps 732 mmHg 60%
18:00 +15°C° 0 mm 2 mps 732 mmHg 65%
19:00 +14°C° 0 mm 1 mps 732 mmHg 70%
20:00 +13°C° 0 mm 1 mps 732 mmHg 72%
21:00 +12°C° 0 mm 1 mps 732 mmHg 74%
22:00 +11°C° 0 mm 1 mps 732 mmHg 76%
23:00 +11°C° 0 mm 1 mps 732 mmHg 76%
Show more